Year,Month,Day,Hour,Minute,Value (Times are PST for temperature in C)
2018,06,19,00,00,21.80
2018,06,19,00,01,21.80
2018,06,19,00,02,21.80
2018,06,19,00,03,21.80
2018,06,19,00,04,21.80
2018,06,19,00,05,21.80
2018,06,19,00,06,21.80
2018,06,19,00,07,21.90
2018,06,19,00,08,21.90
2018,06,19,00,09,21.90
2018,06,19,00,10,21.80
2018,06,19,00,11,21.80
2018,06,19,00,12,21.80
2018,06,19,00,13,21.80
2018,06,19,00,14,21.80
2018,06,19,00,15,21.80
2018,06,19,00,16,21.80
2018,06,19,00,17,21.80
2018,06,19,00,18,21.80
2018,06,19,00,19,21.80
2018,06,19,00,20,21.70
2018,06,19,00,21,21.70
2018,06,19,00,22,21.70
2018,06,19,00,23,21.70
2018,06,19,00,24,21.70
2018,06,19,00,25,21.70
2018,06,19,00,26,21.70
2018,06,19,00,27,21.60
2018,06,19,00,28,21.60
2018,06,19,00,29,21.60
2018,06,19,00,30,21.60
2018,06,19,00,31,21.50
2018,06,19,00,32,21.50
2018,06,19,00,33,21.50
2018,06,19,00,34,21.50
2018,06,19,00,35,21.60
2018,06,19,00,36,21.60
2018,06,19,00,37,21.70
2018,06,19,00,38,21.70
2018,06,19,00,39,21.80
2018,06,19,00,40,21.80
2018,06,19,00,41,21.80
2018,06,19,00,42,21.80
2018,06,19,00,43,21.80
2018,06,19,00,44,21.80
2018,06,19,00,45,21.80
2018,06,19,00,46,21.80
2018,06,19,00,47,21.80
2018,06,19,00,48,21.80
2018,06,19,00,49,21.80
2018,06,19,00,50,21.70
2018,06,19,00,51,21.70
2018,06,19,00,52,21.70
2018,06,19,00,53,21.70
2018,06,19,00,54,21.70
2018,06,19,00,55,21.70
2018,06,19,00,56,21.70
2018,06,19,00,57,21.70
2018,06,19,00,58,21.70
2018,06,19,00,59,21.80
2018,06,19,01,00,21.80
2018,06,19,01,01,21.80
2018,06,19,01,02,21.80
2018,06,19,01,03,21.90
2018,06,19,01,04,21.90
2018,06,19,01,05,21.90
2018,06,19,01,06,21.90
2018,06,19,01,07,21.90
2018,06,19,01,08,22.00
2018,06,19,01,09,21.90
2018,06,19,01,10,21.90
2018,06,19,01,11,21.90
2018,06,19,01,12,21.80
2018,06,19,01,13,21.80
2018,06,19,01,14,21.80
2018,06,19,01,15,21.70
2018,06,19,01,16,21.70
2018,06,19,01,17,21.70
2018,06,19,01,18,21.70
2018,06,19,01,19,21.60
2018,06,19,01,20,21.60
2018,06,19,01,21,21.60
2018,06,19,01,22,21.50
2018,06,19,01,23,21.50
2018,06,19,01,24,21.50
2018,06,19,01,25,21.40
2018,06,19,01,26,21.40
2018,06,19,01,27,21.40
2018,06,19,01,28,21.40
2018,06,19,01,29,21.40
2018,06,19,01,30,21.40
2018,06,19,01,31,21.40
2018,06,19,01,32,21.30
2018,06,19,01,33,21.30
2018,06,19,01,34,21.30
2018,06,19,01,35,21.30
2018,06,19,01,36,21.30
2018,06,19,01,37,21.20
2018,06,19,01,38,21.20
2018,06,19,01,39,21.20
2018,06,19,01,40,21.20
2018,06,19,01,41,21.10
2018,06,19,01,42,21.10
2018,06,19,01,43,21.00
2018,06,19,01,44,20.90
2018,06,19,01,45,20.90
2018,06,19,01,46,20.90
2018,06,19,01,47,20.80
2018,06,19,01,48,20.80
2018,06,19,01,49,20.70
2018,06,19,01,50,20.70
2018,06,19,01,51,20.70
2018,06,19,01,52,20.60
2018,06,19,01,53,20.60
2018,06,19,01,54,20.60
2018,06,19,01,55,20.50
2018,06,19,01,56,20.40
2018,06,19,01,57,20.30
2018,06,19,01,58,20.30
2018,06,19,01,59,20.20
2018,06,19,02,00,20.10
2018,06,19,02,01,20.00
2018,06,19,02,02,19.90
2018,06,19,02,03,19.80
2018,06,19,02,04,19.80
2018,06,19,02,05,19.70
2018,06,19,02,06,19.70
2018,06,19,02,07,19.60
2018,06,19,02,08,19.60
2018,06,19,02,09,19.50
2018,06,19,02,10,19.50
2018,06,19,02,11,19.40
2018,06,19,02,12,19.40
2018,06,19,02,13,19.30
2018,06,19,02,14,19.30
2018,06,19,02,15,19.20
2018,06,19,02,16,19.10
2018,06,19,02,17,19.10
2018,06,19,02,18,19.00
2018,06,19,02,19,19.00
2018,06,19,02,20,18.90
2018,06,19,02,21,18.90
2018,06,19,02,22,18.80
2018,06,19,02,23,18.80
2018,06,19,02,24,18.80
2018,06,19,02,25,18.70
2018,06,19,02,26,18.70
2018,06,19,02,27,18.70
2018,06,19,02,28,18.60
2018,06,19,02,29,18.60
2018,06,19,02,30,18.60
2018,06,19,02,31,18.50
2018,06,19,02,32,18.50
2018,06,19,02,33,18.40
2018,06,19,02,34,18.40
2018,06,19,02,35,18.40
2018,06,19,02,36,18.30
2018,06,19,02,37,18.30
2018,06,19,02,38,18.30
2018,06,19,02,39,18.30
2018,06,19,02,40,18.20
2018,06,19,02,41,18.20
2018,06,19,02,42,18.20
2018,06,19,02,43,18.20
2018,06,19,02,44,18.20
2018,06,19,02,45,18.10
2018,06,19,02,46,18.10
2018,06,19,02,47,18.10
2018,06,19,02,48,18.00
2018,06,19,02,49,18.00
2018,06,19,02,50,18.00
2018,06,19,02,51,17.90
2018,06,19,02,52,17.90
2018,06,19,02,53,17.90
2018,06,19,02,54,17.90
2018,06,19,02,55,17.90
2018,06,19,02,56,17.80
2018,06,19,02,57,17.80
2018,06,19,02,58,17.80
2018,06,19,02,59,17.80
2018,06,19,03,00,17.70
2018,06,19,03,01,17.70
2018,06,19,03,02,17.70
2018,06,19,03,03,17.70
2018,06,19,03,04,17.60
2018,06,19,03,05,17.60
2018,06,19,03,06,17.60
2018,06,19,03,07,17.50
2018,06,19,03,08,17.50
2018,06,19,03,09,17.50
2018,06,19,03,10,17.40
2018,06,19,03,11,17.40
2018,06,19,03,12,17.40
2018,06,19,03,13,17.40
2018,06,19,03,14,17.30
2018,06,19,03,15,17.30
2018,06,19,03,16,17.30
2018,06,19,03,17,17.30
2018,06,19,03,18,17.20
2018,06,19,03,19,17.20
2018,06,19,03,20,17.20
2018,06,19,03,21,17.20
2018,06,19,03,22,17.10
2018,06,19,03,23,17.10
2018,06,19,03,24,17.10
2018,06,19,03,25,17.10
2018,06,19,03,26,17.00
2018,06,19,03,27,17.00
2018,06,19,03,28,16.90
2018,06,19,03,29,16.90
2018,06,19,03,30,16.90
2018,06,19,03,31,16.90
2018,06,19,03,32,16.80
2018,06,19,03,33,16.80
2018,06,19,03,34,16.80
2018,06,19,03,35,16.80
2018,06,19,03,36,16.80
2018,06,19,03,37,16.80
2018,06,19,03,38,16.70
2018,06,19,03,39,16.70
2018,06,19,03,40,16.70
2018,06,19,03,41,16.70
2018,06,19,03,42,16.60
2018,06,19,03,43,16.60
2018,06,19,03,44,16.60
2018,06,19,03,45,16.50
2018,06,19,03,46,16.50
2018,06,19,03,47,16.50
2018,06,19,03,48,16.40
2018,06,19,03,49,16.40
2018,06,19,03,50,16.40
2018,06,19,03,51,16.30
2018,06,19,03,52,16.30
2018,06,19,03,53,16.30
2018,06,19,03,54,16.30
2018,06,19,03,55,16.20
2018,06,19,03,56,16.20
2018,06,19,03,57,16.20
2018,06,19,03,58,16.20
2018,06,19,03,59,16.10
2018,06,19,04,00,16.10
2018,06,19,04,01,16.10
2018,06,19,04,02,16.10
2018,06,19,04,03,16.00
2018,06,19,04,04,16.00
2018,06,19,04,05,16.00
2018,06,19,04,06,15.90
2018,06,19,04,07,15.90
2018,06,19,04,08,15.90
2018,06,19,04,09,15.90
2018,06,19,04,10,15.90
2018,06,19,04,11,15.90
2018,06,19,04,12,15.90
2018,06,19,04,13,15.90
2018,06,19,04,14,15.90
2018,06,19,04,15,15.80
2018,06,19,04,16,15.80
2018,06,19,04,17,15.80
2018,06,19,04,18,15.80
2018,06,19,04,19,15.80
2018,06,19,04,20,15.80
2018,06,19,04,21,15.80
2018,06,19,04,22,15.80
2018,06,19,04,23,15.80
2018,06,19,04,24,15.70
2018,06,19,04,25,15.70
2018,06,19,04,26,15.70
2018,06,19,04,27,15.70
2018,06,19,04,28,15.70
2018,06,19,04,29,15.60
2018,06,19,04,30,15.60
2018,06,19,04,31,15.60
2018,06,19,04,32,15.60
2018,06,19,04,33,15.60
2018,06,19,04,34,15.50
2018,06,19,04,35,15.50
2018,06,19,04,36,15.50
2018,06,19,04,37,15.40
2018,06,19,04,38,15.40
2018,06,19,04,39,15.40
2018,06,19,04,40,15.40
2018,06,19,04,41,15.40
2018,06,19,04,42,15.40
2018,06,19,04,43,15.40
2018,06,19,04,44,15.40
2018,06,19,04,45,15.40
2018,06,19,04,46,15.40
2018,06,19,04,47,15.40
2018,06,19,04,48,15.40
2018,06,19,04,49,15.40
2018,06,19,04,50,15.40
2018,06,19,04,51,15.40
2018,06,19,04,52,15.40
2018,06,19,04,53,15.40
2018,06,19,04,54,15.40
2018,06,19,04,55,15.40
2018,06,19,04,56,15.40
2018,06,19,04,57,15.40
2018,06,19,04,58,15.40
2018,06,19,04,59,15.40
2018,06,19,05,00,15.40
2018,06,19,05,01,15.40
2018,06,19,05,02,15.40
2018,06,19,05,03,15.40
2018,06,19,05,04,15.40
2018,06,19,05,05,15.30
2018,06,19,05,06,15.30
2018,06,19,05,07,15.30
2018,06,19,05,08,15.30
2018,06,19,05,09,15.30
2018,06,19,05,10,15.30
2018,06,19,05,11,15.20
2018,06,19,05,12,15.20
2018,06,19,05,13,15.20
2018,06,19,05,14,15.20
2018,06,19,05,15,15.10
2018,06,19,05,16,15.10
2018,06,19,05,17,15.10
2018,06,19,05,18,15.10
2018,06,19,05,19,15.00
2018,06,19,05,20,15.00
2018,06,19,05,21,15.00
2018,06,19,05,22,15.00
2018,06,19,05,23,15.00
2018,06,19,05,24,15.00
2018,06,19,05,25,15.00
2018,06,19,05,26,15.00
2018,06,19,05,27,15.00
2018,06,19,05,28,15.00
2018,06,19,05,29,15.00
2018,06,19,05,30,15.00
2018,06,19,05,31,14.90
2018,06,19,05,32,14.90
2018,06,19,05,33,14.90
2018,06,19,05,34,14.80
2018,06,19,05,35,14.80
2018,06,19,05,36,14.80
2018,06,19,05,37,14.80
2018,06,19,05,38,14.80
2018,06,19,05,39,14.80
2018,06,19,05,40,14.80
2018,06,19,05,41,14.70
2018,06,19,05,42,14.70
2018,06,19,05,43,14.70
2018,06,19,05,44,14.70
2018,06,19,05,45,14.70
2018,06,19,05,46,14.70
2018,06,19,05,47,14.70
2018,06,19,05,48,14.60
2018,06,19,05,49,14.60
2018,06,19,05,50,14.60
2018,06,19,05,51,14.60
2018,06,19,05,52,14.60
2018,06,19,05,53,14.60
2018,06,19,05,54,14.60
2018,06,19,05,55,14.60
2018,06,19,05,56,14.60
2018,06,19,05,57,14.60
2018,06,19,05,58,14.60
2018,06,19,05,59,14.60
2018,06,19,06,00,14.60
2018,06,19,06,01,14.60
2018,06,19,06,02,14.60
2018,06,19,06,03,14.60
2018,06,19,06,04,14.60
2018,06,19,06,05,14.60
2018,06,19,06,06,14.70
2018,06,19,06,07,14.70
2018,06,19,06,08,14.70
2018,06,19,06,09,14.70
2018,06,19,06,10,14.70
2018,06,19,06,11,14.80
2018,06,19,06,12,14.80
2018,06,19,06,13,14.80
2018,06,19,06,14,14.80
2018,06,19,06,15,14.80
2018,06,19,06,16,14.80
2018,06,19,06,17,14.80
2018,06,19,06,18,14.80
2018,06,19,06,19,14.80
2018,06,19,06,20,14.80
2018,06,19,06,21,14.80
2018,06,19,06,22,14.90
2018,06,19,06,23,14.90
2018,06,19,06,24,14.90
2018,06,19,06,25,15.00
2018,06,19,06,26,15.00
2018,06,19,06,27,15.00
2018,06,19,06,28,15.00
2018,06,19,06,29,15.10
2018,06,19,06,30,15.20
2018,06,19,06,31,15.30
2018,06,19,06,32,15.30
2018,06,19,06,33,15.30
2018,06,19,06,34,15.40
2018,06,19,06,35,15.40
2018,06,19,06,36,15.50
2018,06,19,06,37,15.50
2018,06,19,06,38,15.60
2018,06,19,06,39,15.60
2018,06,19,06,40,15.70
2018,06,19,06,41,15.70
2018,06,19,06,42,15.80
2018,06,19,06,43,15.80
2018,06,19,06,44,15.90
2018,06,19,06,45,15.90
2018,06,19,06,46,16.00
2018,06,19,06,47,16.00
2018,06,19,06,48,16.10
2018,06,19,06,49,16.20
2018,06,19,06,50,16.30
2018,06,19,06,51,16.30
2018,06,19,06,52,16.40
2018,06,19,06,53,16.50
2018,06,19,06,54,16.50
2018,06,19,06,55,16.60
2018,06,19,06,56,16.60
2018,06,19,06,57,16.60
2018,06,19,06,58,16.60
2018,06,19,06,59,16.70
2018,06,19,07,00,16.70
2018,06,19,07,01,16.70
2018,06,19,07,02,16.70
2018,06,19,07,03,16.70
2018,06,19,07,04,16.80
2018,06,19,07,05,16.80
2018,06,19,07,06,16.80
2018,06,19,07,07,16.90
2018,06,19,07,08,16.90
2018,06,19,07,09,17.00
2018,06,19,07,10,17.00
2018,06,19,07,11,17.10
2018,06,19,07,12,17.10
2018,06,19,07,13,17.20
2018,06,19,07,14,17.30
2018,06,19,07,15,17.30
2018,06,19,07,16,17.30
2018,06,19,07,17,17.40
2018,06,19,07,18,17.40
2018,06,19,07,19,17.40
2018,06,19,07,20,17.50
2018,06,19,07,21,17.60
2018,06,19,07,22,17.60
2018,06,19,07,23,17.70
2018,06,19,07,24,17.70
2018,06,19,07,25,17.80
2018,06,19,07,26,17.80
2018,06,19,07,27,17.80
2018,06,19,07,28,17.90
2018,06,19,07,29,17.90
2018,06,19,07,30,18.00
2018,06,19,07,31,18.00
2018,06,19,07,32,18.10
2018,06,19,07,33,18.20
2018,06,19,07,34,18.30
2018,06,19,07,35,18.30
2018,06,19,07,36,18.30
2018,06,19,07,37,18.30
2018,06,19,07,38,18.30
2018,06,19,07,39,18.20
2018,06,19,07,40,18.20
2018,06,19,07,41,18.20
2018,06,19,07,42,18.20
2018,06,19,07,43,18.30
2018,06,19,07,44,18.20
2018,06,19,07,45,18.20
2018,06,19,07,46,18.20
2018,06,19,07,47,18.20
2018,06,19,07,48,18.20
2018,06,19,07,49,18.20
2018,06,19,07,50,18.20
2018,06,19,07,51,18.20
2018,06,19,07,52,18.30
2018,06,19,07,53,18.30
2018,06,19,07,54,18.30
2018,06,19,07,55,18.40
2018,06,19,07,56,18.40
2018,06,19,07,57,18.50
2018,06,19,07,58,18.60
2018,06,19,07,59,18.60
2018,06,19,08,00,18.70
2018,06,19,08,01,18.70
2018,06,19,08,02,18.70
2018,06,19,08,03,18.80
2018,06,19,08,04,18.80
2018,06,19,08,05,18.80
2018,06,19,08,06,18.80
2018,06,19,08,07,18.80
2018,06,19,08,08,18.80
2018,06,19,08,09,18.80
2018,06,19,08,10,18.80
2018,06,19,08,11,18.80
2018,06,19,08,12,18.80
2018,06,19,08,13,18.80
2018,06,19,08,14,18.80
2018,06,19,08,15,18.80
2018,06,19,08,16,18.80
2018,06,19,08,17,18.90
2018,06,19,08,18,18.90
2018,06,19,08,19,19.00
2018,06,19,08,20,19.10
2018,06,19,08,21,19.10
2018,06,19,08,22,19.10
2018,06,19,08,23,19.10
2018,06,19,08,24,19.20
2018,06,19,08,25,19.30
2018,06,19,08,26,19.30
2018,06,19,08,27,19.40
2018,06,19,08,28,19.50
2018,06,19,08,29,19.50
2018,06,19,08,30,19.50
2018,06,19,08,31,19.50
2018,06,19,08,32,19.40
2018,06,19,08,33,19.30
2018,06,19,08,34,19.20
2018,06,19,08,35,19.10
2018,06,19,08,36,19.10
2018,06,19,08,37,19.20
2018,06,19,08,38,19.20
2018,06,19,08,39,19.30
2018,06,19,08,40,19.30
2018,06,19,08,41,19.30
2018,06,19,08,42,19.30
2018,06,19,08,43,19.30
2018,06,19,08,44,19.30
2018,06,19,08,45,19.40
2018,06,19,08,46,19.40
2018,06,19,08,47,19.50
2018,06,19,08,48,19.60
2018,06,19,08,49,19.60
2018,06,19,08,50,19.60
2018,06,19,08,51,19.50
2018,06,19,08,52,19.40
2018,06,19,08,53,19.30
2018,06,19,08,54,19.20
2018,06,19,08,55,19.20
2018,06,19,08,56,19.20
2018,06,19,08,57,19.20
2018,06,19,08,58,19.30
2018,06,19,08,59,19.40
2018,06,19,09,00,19.50
2018,06,19,09,01,19.60
2018,06,19,09,02,19.70
2018,06,19,09,03,19.90
2018,06,19,09,04,20.00
2018,06,19,09,05,20.00
2018,06,19,09,06,20.10
2018,06,19,09,07,20.20
2018,06,19,09,08,20.20
2018,06,19,09,09,20.20
2018,06,19,09,10,20.20
2018,06,19,09,11,20.20
2018,06,19,09,12,20.20
2018,06,19,09,13,20.20
2018,06,19,09,14,20.30
2018,06,19,09,15,20.30
2018,06,19,09,16,20.30
2018,06,19,09,17,20.20
2018,06,19,09,18,20.10
2018,06,19,09,19,20.20
2018,06,19,09,20,20.20
2018,06,19,09,21,20.30
2018,06,19,09,22,20.30
2018,06,19,09,23,20.40
2018,06,19,09,24,20.30
2018,06,19,09,25,20.20
2018,06,19,09,26,20.20
2018,06,19,09,27,20.20
2018,06,19,09,28,20.20
2018,06,19,09,29,20.30
2018,06,19,09,30,20.40
2018,06,19,09,31,20.50
2018,06,19,09,32,20.60
2018,06,19,09,33,20.70
2018,06,19,09,34,20.80
2018,06,19,09,35,20.80
2018,06,19,09,36,20.90
2018,06,19,09,37,21.00
2018,06,19,09,38,20.90
2018,06,19,09,39,21.00
2018,06,19,09,40,21.10
2018,06,19,09,41,21.10
2018,06,19,09,42,21.10
2018,06,19,09,43,21.20
2018,06,19,09,44,21.20
2018,06,19,09,45,21.20
2018,06,19,09,46,21.20
2018,06,19,09,47,21.30
2018,06,19,09,48,21.40
2018,06,19,09,49,21.30
2018,06,19,09,50,21.30
2018,06,19,09,51,21.30
2018,06,19,09,52,21.30
2018,06,19,09,53,21.30
2018,06,19,09,54,21.40
2018,06,19,09,55,21.40
2018,06,19,09,56,21.40
2018,06,19,09,57,21.50
2018,06,19,09,58,21.60
2018,06,19,09,59,21.60
2018,06,19,10,00,21.70
2018,06,19,10,01,21.70
2018,06,19,10,02,21.70
2018,06,19,10,03,21.70
2018,06,19,10,04,21.80
2018,06,19,10,05,21.80
2018,06,19,10,06,21.70
2018,06,19,10,07,21.70
2018,06,19,10,08,21.70
2018,06,19,10,09,21.70
2018,06,19,10,10,21.70
2018,06,19,10,11,21.70
2018,06,19,10,12,21.80
2018,06,19,10,13,21.80
2018,06,19,10,14,21.90
2018,06,19,10,15,21.90
2018,06,19,10,16,21.90
2018,06,19,10,17,21.80
2018,06,19,10,18,21.60
2018,06,19,10,19,21.50
2018,06,19,10,20,21.40
2018,06,19,10,21,21.40
2018,06,19,10,22,21.40
2018,06,19,10,23,21.50
2018,06,19,10,24,21.40
2018,06,19,10,25,21.30
2018,06,19,10,26,21.10
2018,06,19,10,27,21.10
2018,06,19,10,28,21.10
2018,06,19,10,29,21.00
2018,06,19,10,30,21.10
2018,06,19,10,31,21.10
2018,06,19,10,32,21.20
2018,06,19,10,33,21.30
2018,06,19,10,34,21.40
2018,06,19,10,35,21.60
2018,06,19,10,36,21.60
2018,06,19,10,37,21.50
2018,06,19,10,38,21.50
2018,06,19,10,39,21.40
2018,06,19,10,40,21.40
2018,06,19,10,41,21.50
2018,06,19,10,42,21.60
2018,06,19,10,43,21.60
2018,06,19,10,44,21.60
2018,06,19,10,45,21.60
2018,06,19,10,46,21.70
2018,06,19,10,47,21.80
2018,06,19,10,48,21.80
2018,06,19,10,49,21.90
2018,06,19,10,50,22.00
2018,06,19,10,51,22.10
2018,06,19,10,52,22.20
2018,06,19,10,53,22.30
2018,06,19,10,54,22.40
2018,06,19,10,55,22.50
2018,06,19,10,56,22.60
2018,06,19,10,57,22.60
2018,06,19,10,58,22.60
2018,06,19,10,59,22.60
2018,06,19,11,00,22.50
2018,06,19,11,01,22.40
2018,06,19,11,02,22.50
2018,06,19,11,03,22.50
2018,06,19,11,04,22.60
2018,06,19,11,05,22.60
2018,06,19,11,06,22.60
2018,06,19,11,07,22.60
2018,06,19,11,08,22.60
2018,06,19,11,09,22.50
2018,06,19,11,10,22.40
2018,06,19,11,11,22.40
2018,06,19,11,12,22.30
2018,06,19,11,13,22.30
2018,06,19,11,14,22.20
2018,06,19,11,15,22.20
2018,06,19,11,16,22.20
2018,06,19,11,17,22.30
2018,06,19,11,18,22.40
2018,06,19,11,19,22.50
2018,06,19,11,20,22.60
2018,06,19,11,21,22.70
2018,06,19,11,22,22.70
2018,06,19,11,23,22.70
2018,06,19,11,24,22.80
2018,06,19,11,25,22.90
2018,06,19,11,26,22.90
2018,06,19,11,27,22.90
2018,06,19,11,28,22.90
2018,06,19,11,29,23.00
2018,06,19,11,30,23.10
2018,06,19,11,31,23.00
2018,06,19,11,32,22.70
2018,06,19,11,33,22.40
2018,06,19,11,34,22.30
2018,06,19,11,35,22.40
2018,06,19,11,36,22.50
2018,06,19,11,37,22.60
2018,06,19,11,38,22.70
2018,06,19,11,39,22.90
2018,06,19,11,40,23.00
2018,06,19,11,41,23.10
2018,06,19,11,42,23.20
2018,06,19,11,43,23.20
2018,06,19,11,44,23.30
2018,06,19,11,45,23.40
2018,06,19,11,46,23.40
2018,06,19,11,47,23.30
2018,06,19,11,48,23.10
2018,06,19,11,49,22.80
2018,06,19,11,50,22.70
2018,06,19,11,51,22.70
2018,06,19,11,52,22.70
2018,06,19,11,53,22.70
2018,06,19,11,54,22.60
2018,06,19,11,55,22.50
2018,06,19,11,56,22.50
2018,06,19,11,57,22.60
2018,06,19,11,58,22.60
2018,06,19,11,59,22.70
2018,06,19,12,00,22.80
2018,06,19,12,01,23.00
2018,06,19,12,02,23.10
2018,06,19,12,03,23.20
2018,06,19,12,04,23.30
2018,06,19,12,05,23.40
2018,06,19,12,06,23.40
2018,06,19,12,07,23.50
2018,06,19,12,08,23.50
2018,06,19,12,09,23.30
2018,06,19,12,10,23.10
2018,06,19,12,11,22.90
2018,06,19,12,12,22.80
2018,06,19,12,13,22.80
2018,06,19,12,14,22.90
2018,06,19,12,15,22.90
2018,06,19,12,16,23.10
2018,06,19,12,17,23.20
2018,06,19,12,18,23.30
2018,06,19,12,19,23.30
2018,06,19,12,20,23.30
2018,06,19,12,21,23.20
2018,06,19,12,22,23.00
2018,06,19,12,23,23.00
2018,06,19,12,24,23.00
2018,06,19,12,25,23.10
2018,06,19,12,26,23.10
2018,06,19,12,27,23.10
2018,06,19,12,28,23.10
2018,06,19,12,29,22.90
2018,06,19,12,30,22.70
2018,06,19,12,31,22.60
2018,06,19,12,32,22.60
2018,06,19,12,33,22.60
2018,06,19,12,34,22.50
2018,06,19,12,35,22.50
2018,06,19,12,36,22.40
2018,06,19,12,37,22.30
2018,06,19,12,38,22.40
2018,06,19,12,39,22.40
2018,06,19,12,40,22.60
2018,06,19,12,41,22.70
2018,06,19,12,42,22.80
2018,06,19,12,43,23.00
2018,06,19,12,44,23.20
2018,06,19,12,45,23.30
2018,06,19,12,46,23.30
2018,06,19,12,47,23.30
2018,06,19,12,48,23.20
2018,06,19,12,49,23.20
2018,06,19,12,50,23.30
2018,06,19,12,51,23.30
2018,06,19,12,52,23.30
2018,06,19,12,53,23.20
2018,06,19,12,54,23.00
2018,06,19,12,55,22.90
2018,06,19,12,56,22.80
2018,06,19,12,57,22.80
2018,06,19,12,58,22.90
2018,06,19,12,59,23.10
2018,06,19,13,00,23.00
2018,06,19,13,01,23.00
2018,06,19,13,02,23.00
2018,06,19,13,03,23.10
2018,06,19,13,04,23.20
2018,06,19,13,05,23.30
2018,06,19,13,06,23.30
2018,06,19,13,07,23.30
2018,06,19,13,08,23.30
2018,06,19,13,09,23.20
2018,06,19,13,10,23.30
2018,06,19,13,11,23.20
2018,06,19,13,12,23.10
2018,06,19,13,13,23.10
2018,06,19,13,14,23.20
2018,06,19,13,15,23.40
2018,06,19,13,16,23.50
2018,06,19,13,17,23.60
2018,06,19,13,18,23.60
2018,06,19,13,19,23.50
2018,06,19,13,20,23.50
2018,06,19,13,21,23.40
2018,06,19,13,22,23.30
2018,06,19,13,23,23.40
2018,06,19,13,24,23.50
2018,06,19,13,25,23.70
2018,06,19,13,26,24.00
2018,06,19,13,27,24.30
2018,06,19,13,28,24.40
2018,06,19,13,29,24.40
2018,06,19,13,30,24.30
2018,06,19,13,31,24.20
2018,06,19,13,32,24.20
2018,06,19,13,33,24.20
2018,06,19,13,34,24.30
2018,06,19,13,35,24.30
2018,06,19,13,36,24.40
2018,06,19,13,37,24.50
2018,06,19,13,38,24.60
2018,06,19,13,39,24.70
2018,06,19,13,40,24.90
2018,06,19,13,41,25.00
2018,06,19,13,42,25.10
2018,06,19,13,43,25.30
2018,06,19,13,44,25.40
2018,06,19,13,45,25.50
2018,06,19,13,46,25.70
2018,06,19,13,47,25.80
2018,06,19,13,48,25.90
2018,06,19,13,49,26.00
2018,06,19,13,50,26.10
2018,06,19,13,51,26.10
2018,06,19,13,52,26.20
2018,06,19,13,53,26.10
2018,06,19,13,54,26.00
2018,06,19,13,55,25.90
2018,06,19,13,56,25.70
2018,06,19,13,57,25.60
2018,06,19,13,58,25.50
2018,06,19,13,59,25.40
2018,06,19,14,00,25.30
2018,06,19,14,01,25.30
2018,06,19,14,02,25.20
2018,06,19,14,03,25.30
2018,06,19,14,04,25.20
2018,06,19,14,05,25.30
2018,06,19,14,06,25.20
2018,06,19,14,07,25.20
2018,06,19,14,08,25.20
2018,06,19,14,09,25.10
2018,06,19,14,10,25.20
2018,06,19,14,11,25.10
2018,06,19,14,12,25.10
2018,06,19,14,13,25.10
2018,06,19,14,14,25.20
2018,06,19,14,15,25.30
2018,06,19,14,16,25.40
2018,06,19,14,17,25.40
2018,06,19,14,18,25.50
2018,06,19,14,19,25.40
2018,06,19,14,20,25.30
2018,06,19,14,21,25.20
2018,06,19,14,22,25.10
2018,06,19,14,23,25.20
2018,06,19,14,24,25.10
2018,06,19,14,25,25.10
2018,06,19,14,26,25.00
2018,06,19,14,27,25.00
2018,06,19,14,28,25.00
2018,06,19,14,29,25.10
2018,06,19,14,30,25.10
2018,06,19,14,31,25.10
2018,06,19,14,32,25.10
2018,06,19,14,33,25.10
2018,06,19,14,34,25.00
2018,06,19,14,35,25.00
2018,06,19,14,36,25.10
2018,06,19,14,37,25.10
2018,06,19,14,38,25.10
2018,06,19,14,39,25.10
2018,06,19,14,40,25.00
2018,06,19,14,41,24.90
2018,06,19,14,42,24.90
2018,06,19,14,43,24.90
2018,06,19,14,44,25.00
2018,06,19,14,45,25.20
2018,06,19,14,46,25.40
2018,06,19,14,47,25.50
2018,06,19,14,48,25.60
2018,06,19,14,49,25.50
2018,06,19,14,50,25.50
2018,06,19,14,51,25.40
2018,06,19,14,52,25.30
2018,06,19,14,53,25.30
2018,06,19,14,54,25.50
2018,06,19,14,55,25.60
2018,06,19,14,56,25.80
2018,06,19,14,57,26.00
2018,06,19,14,58,26.10
2018,06,19,14,59,26.10
2018,06,19,15,00,26.10
2018,06,19,15,01,26.20
2018,06,19,15,02,26.20
2018,06,19,15,03,26.30
2018,06,19,15,04,26.40
2018,06,19,15,05,26.50
2018,06,19,15,06,26.60
2018,06,19,15,07,26.60
2018,06,19,15,08,26.60
2018,06,19,15,09,26.50
2018,06,19,15,10,26.40
2018,06,19,15,11,26.40
2018,06,19,15,12,26.40
2018,06,19,15,13,26.30
2018,06,19,15,14,26.40
2018,06,19,15,15,26.50
2018,06,19,15,16,26.50
2018,06,19,15,17,26.60
2018,06,19,15,18,26.60
2018,06,19,15,19,26.70
2018,06,19,15,20,26.70
2018,06,19,15,21,26.70
2018,06,19,15,22,26.80
2018,06,19,15,23,26.90
2018,06,19,15,24,26.90
2018,06,19,15,25,26.90
2018,06,19,15,26,26.90
2018,06,19,15,27,26.80
2018,06,19,15,28,26.90
2018,06,19,15,29,26.90
2018,06,19,15,30,27.00
2018,06,19,15,31,27.00
2018,06,19,15,32,27.00
2018,06,19,15,33,27.00
2018,06,19,15,34,26.90
2018,06,19,15,35,26.90
2018,06,19,15,36,26.80
2018,06,19,15,37,26.70
2018,06,19,15,38,26.70
2018,06,19,15,39,26.60
2018,06,19,15,40,26.60
2018,06,19,15,41,26.60
2018,06,19,15,42,26.50
2018,06,19,15,43,26.40
2018,06,19,15,44,26.20
2018,06,19,15,45,26.00
2018,06,19,15,46,25.90
2018,06,19,15,47,25.80
2018,06,19,15,48,25.70
2018,06,19,15,49,25.50
2018,06,19,15,50,25.40
2018,06,19,15,51,25.30
2018,06,19,15,52,25.20
2018,06,19,15,53,25.10
2018,06,19,15,54,25.10
2018,06,19,15,55,25.10
2018,06,19,15,56,25.10
2018,06,19,15,57,25.10
2018,06,19,15,58,25.10
2018,06,19,15,59,25.10
2018,06,19,16,00,25.20
2018,06,19,16,01,25.20
2018,06,19,16,02,25.30
2018,06,19,16,03,25.30
2018,06,19,16,04,25.40
2018,06,19,16,05,25.50
2018,06,19,16,06,25.50
2018,06,19,16,07,25.60
2018,06,19,16,08,25.70
2018,06,19,16,09,25.80
2018,06,19,16,10,25.80
2018,06,19,16,11,25.80
2018,06,19,16,12,25.90
2018,06,19,16,13,25.90
2018,06,19,16,14,26.00
2018,06,19,16,15,26.10
2018,06,19,16,16,26.20
2018,06,19,16,17,26.30
2018,06,19,16,18,26.30
2018,06,19,16,19,26.30
2018,06,19,16,20,26.20
2018,06,19,16,21,26.20
2018,06,19,16,22,26.20
2018,06,19,16,23,26.20
2018,06,19,16,24,26.10
2018,06,19,16,25,26.10
2018,06,19,16,26,26.20
2018,06,19,16,27,26.20
2018,06,19,16,28,26.30
2018,06,19,16,29,26.40
2018,06,19,16,30,26.50
2018,06,19,16,31,26.70
2018,06,19,16,32,26.80
2018,06,19,16,33,26.90
2018,06,19,16,34,27.00
2018,06,19,16,35,27.10
2018,06,19,16,36,27.10
2018,06,19,16,37,27.10
2018,06,19,16,38,27.20
2018,06,19,16,39,27.20
2018,06,19,16,40,27.30
2018,06,19,16,41,27.30
2018,06,19,16,42,27.30
2018,06,19,16,43,27.30
2018,06,19,16,44,27.30
2018,06,19,16,45,27.40
2018,06,19,16,46,27.50
2018,06,19,16,47,27.60
2018,06,19,16,48,27.60
2018,06,19,16,49,27.60
2018,06,19,16,50,27.50
2018,06,19,16,51,27.40
2018,06,19,16,52,27.40
2018,06,19,16,53,27.40
2018,06,19,16,54,27.50
2018,06,19,16,55,27.60
2018,06,19,16,56,27.70
2018,06,19,16,57,27.70
2018,06,19,16,58,27.80
2018,06,19,16,59,27.80
2018,06,19,17,00,27.80
2018,06,19,17,01,27.80
2018,06,19,17,02,27.70
2018,06,19,17,03,27.60
2018,06,19,17,04,27.50
2018,06,19,17,05,27.50
2018,06,19,17,06,27.40
2018,06,19,17,07,27.40
2018,06,19,17,08,27.40
2018,06,19,17,09,27.30
2018,06,19,17,10,27.30
2018,06,19,17,11,27.30
2018,06,19,17,12,27.30
2018,06,19,17,13,27.20
2018,06,19,17,14,27.20
2018,06,19,17,15,27.20
2018,06,19,17,16,27.20
2018,06,19,17,17,27.20
2018,06,19,17,18,27.20
2018,06,19,17,19,27.00